Home   Weather   Surrey   Past weeks

Flag for Canada Past Weather in Surrey, British Columbia, Canada — Yesterday and Last 2 Weeks

Now
26 °F

Chilly.


Feels Like: 22 °F
Forecast: 18 / 27 °F
Wind: 3 mph from Southeast

Location: P. Meadows Coastal Station

Current Time: Dec 7, 2016 at 6:29:58 pm

Latest Report: Dec 7, 2016 at 6:00 pm


Visibility: N/A

Pressure: 30.44 "Hg

Humidity: 57%

Dew Point: 12 °F

Location of SurreyLocation

Past Weather in Surrey — Graph

°F

Surrey Temperature Yesterday

Maximum temperature yesterday: 37 °F (at 2:00 pm)
Minimum temperature yesterday: 28 °F (at 11:00 pm)
Average temperature yesterday: 32 °F

High & Low Weather Summary for the Past Weeks

 TemperatureHumidityPressure
High50 °F (Nov 24, 3:00 am)100% (Nov 27, 1:00 pm)30.51 "Hg (Nov 27, 1:00 pm)
Low23 °F (Dec 7, 8:00 am)43% (Dec 7, 2:00 pm)29.42 "Hg (Nov 27, 9:00 pm)
Average41 °F86%29.98 "Hg
* Reported Nov 22 5:00 pm — Dec 7 5:00 pm, Surrey, Weather by CustomWeather, © 2016

Note: Actual official high and low records may vary slightly from our data, if they occured in-between our weather recording intervals... More about our weather records

Advertising

Surrey Weather History for the Previous 24 Hours

Scroll right to see more
 ConditionsComfort  
Time TempWeatherWind HumidityBarometerVisibility
5:00 pm
Wed, Dec 7
27 °FChilly.6 mph53%30.45 "HgN/A
4:00 pm29 °FChilly.7 mph50%30.47 "HgN/A
3:00 pm31 °FChilly.6 mph47%30.48 "HgN/A
2:00 pm31 °FChilly.6 mph43%30.48 "HgN/A
1:00 pm31 °FChilly.5 mph44%30.49 "HgN/A
12:00 pm31 °FChilly.6 mph46%30.50 "HgN/A
11:00 am30 °FChilly.7 mph48%30.51 "HgN/A
10:00 am28 °FChilly.6 mph51%30.51 "HgN/A
9:00 am26 °FChilly.5 mph57%30.51 "HgN/A
8:00 am23 °FCold.5 mph63%30.50 "HgN/A
7:00 am24 °FCold.6 mph61%30.50 "HgN/A
6:00 am25 °FCold.7 mph59%30.50 "HgN/A
5:00 am25 °FCold.6 mph61%30.50 "HgN/A
4:00 am26 °FChilly.7 mph53%30.49 "HgN/A
3:00 am27 °FChilly.7 mph54%30.48 "HgN/A
2:00 am27 °FChilly.7 mph55%30.47 "HgN/A
1:00 am28 °FChilly.8 mph53%30.46 "HgN/A
12:00 am28 °FChilly.9 mph58%30.45 "HgN/A
11:00 pm
Tue, Dec 6
28 °FChilly.8 mph56%30.43 "HgN/A
10:00 pm28 °FChilly.10 mph56%30.40 "HgN/A
9:00 pm29 °FChilly.7 mph59%30.38 "HgN/A
8:00 pm30 °FChilly.8 mph59%30.36 "HgN/A
7:00 pm31 °FChilly.7 mph62%30.34 "HgN/A
6:00 pm32 °FChilly.5 mph62%30.34 "HgN/A
Weather by CustomWeather, © 2016

See weather overviewHow to use our weather pages